Weather History for Rensselaer, IN

Change the Weather History Date:

Saturday, April 12, 2014

  Actual Average (KVPZ) Record (KVPZ)
Temperature  
Mean Temperature 60 °F 48 °F  
Max Temperature 77 °F 58 °F 77 °F (2014)
Min Temperature 42 °F 37 °F 27 °F (2000)
Degree Days  
Heating Degree Days 6 17  
Month to date heating degree days 231  
Since 1 July heating degree days 5808  
Cooling Degree Days 0 0  
Month to date cooling degree days 0  
Year to date cooling degree days 0  
Growing Degree Days 10 (Base 50)    
Moisture  
Dew Point 43 °F    
Average Humidity 53    
Maximum Humidity 81    
Minimum Humidity 32    
Precipitation  
Precipitation 0.00 in 0.12 in 0.16 in (2005)
Month to date precipitation 1.28  
Year to date precipitation 6.93  
Sea Level Pressure  
Sea Level Pressure 29.92 in    
Wind  
Wind Speed 11 mph (South)    
Max Wind Speed 29 mph    
Max Gust Speed 37 mph    
Visibility 10 miles    
Events      
T = Trace of Precipitation, MM = Missing Value Source: NWS Daily Summary

Daily Weather History Graph

Daily Weather History Graph

Search for Another Location

Airport:

Trip Planner

Search our weather history database for the weather conditions in past years. The results will help you decide how hot, cold, wet, or windy it might be!

Date:

Astronomy

Apr. 12, 2014 Rise Set
Actual Time 6:14 AM CDT 7:25 PM CDT
Civil Twilight 5:46 AM CDT 7:53 PM CDT
Nautical Twilight 5:12 AM CDT 8:27 PM CDT
Astronomical Twilight 4:36 AM CDT 9:03 PM CDT
Moon 5:02 PM CDT (4/12) 4:42 AM CDT (4/12)
Length of Visible Light 14h 07m
Length of Day
13h 10m
Waxing Gibbous, 93% of the Moon is Illuminated
Apr 12
Waxing Gibbous
Apr 15
Full
Apr 22
Last Quarter
Apr 29
New
May 6
First Quarter

Hourly Weather History & Observations

Time (CDT) Temp. Windchill Dew Point Humidity Pressure Visibility Wind Dir Wind Speed Gust Speed Precip Events Conditions
12:15 AM 51.8 °F - 33.8 °F 50% 30.05 in 10.0 mi South 10.4 mph - N/A   Clear
12:35 AM 51.8 °F - 35.6 °F 54% 30.05 in 10.0 mi SSW 10.4 mph - N/A   Clear
12:55 AM 51.8 °F - 35.6 °F 54% 30.05 in 10.0 mi SSW 9.2 mph - N/A   Clear
1:15 AM 50.0 °F - 35.6 °F 58% 30.05 in 10.0 mi South 8.1 mph - N/A   Clear
1:35 AM 50.0 °F - 35.6 °F 58% 30.05 in 10.0 mi South 6.9 mph - N/A   Clear
1:55 AM 50.0 °F - 35.6 °F 58% 30.05 in 10.0 mi South 5.8 mph - N/A   Clear
2:15 AM 50.0 °F - 33.8 °F 54% 30.05 in 10.0 mi Calm Calm - N/A   Clear
2:35 AM 48.2 °F - 33.8 °F 58% 30.05 in 10.0 mi South 4.6 mph - N/A   Clear
2:55 AM 46.4 °F 44.3 °F 33.8 °F 62% 30.06 in 10.0 mi SSW 4.6 mph - N/A   Clear
3:15 AM 46.4 °F - 33.8 °F 62% 30.06 in 10.0 mi Calm Calm - N/A   Clear
3:35 AM 46.4 °F - 33.8 °F 62% 30.06 in 10.0 mi Calm Calm - N/A   Clear
3:55 AM 48.2 °F - 33.8 °F 58% 30.06 in 10.0 mi Calm Calm - N/A   Clear
4:15 AM 46.4 °F - 33.8 °F 62% 30.06 in 10.0 mi Calm Calm - N/A   Clear
4:35 AM 42.8 °F - 33.8 °F 70% 30.06 in 10.0 mi Calm Calm - N/A   Clear
4:55 AM 42.8 °F - 33.8 °F 70% 30.06 in 10.0 mi Calm Calm - N/A   Clear
5:15 AM 42.8 °F 40.1 °F 33.8 °F 70% 30.06 in 10.0 mi SSE 4.6 mph - N/A   Clear
5:35 AM 42.8 °F 39.3 °F 33.8 °F 70% 30.06 in 10.0 mi South 5.8 mph - N/A   Clear
5:55 AM 44.6 °F - 33.8 °F 66% 30.06 in 10.0 mi Calm Calm - N/A   Clear
6:15 AM 44.6 °F - 33.8 °F 66% 30.06 in 10.0 mi Calm Calm - N/A   Clear
6:35 AM 44.6 °F - 33.8 °F 66% 30.05 in 10.0 mi Calm Calm - N/A   Clear
6:55 AM 44.6 °F 42.2 °F 35.6 °F 71% 30.05 in 10.0 mi SE 4.6 mph - N/A   Scattered Clouds
7:15 AM 44.6 °F 42.2 °F 39.2 °F 81% 30.03 in 10.0 mi ESE 4.6 mph - N/A   Scattered Clouds
7:35 AM 50.0 °F - 37.4 °F 62% 30.03 in 10.0 mi SSE 11.5 mph - N/A   Scattered Clouds
7:55 AM 53.6 °F - 35.6 °F 51% 30.03 in 10.0 mi SSE 10.4 mph - N/A   Clear
8:15 AM 55.4 °F - 33.8 °F 44% 30.03 in 10.0 mi SSE 11.5 mph - N/A   Clear
8:35 AM 59.0 °F - 32.0 °F 36% 30.02 in 10.0 mi SSE 15.0 mph 19.6 mph N/A   Clear
8:55 AM 60.8 °F - 32.0 °F 34% 30.01 in 10.0 mi SSE 16.1 mph - N/A   Clear
9:15 AM 62.6 °F - 32.0 °F 32% 30.01 in 10.0 mi SSE 16.1 mph - N/A   Clear
9:35 AM 64.4 °F - 33.8 °F 32% 29.99 in 10.0 mi SSE 16.1 mph 23.0 mph N/A   Clear
9:55 AM 66.2 °F - 39.2 °F 37% 29.99 in 10.0 mi SSE 15.0 mph - N/A   Clear
10:15 AM 68.0 °F - 44.6 °F 43% 29.98 in 10.0 mi SSE 20.7 mph 25.3 mph N/A   Scattered Clouds
10:35 AM 68.0 °F - 46.4 °F 46% 29.97 in 10.0 mi SSE 20.7 mph 28.8 mph N/A   Clear
10:55 AM 69.8 °F - 48.2 °F 46% 29.96 in 10.0 mi SSE 20.7 mph 25.3 mph N/A   Scattered Clouds
11:15 AM 69.8 °F - 50.0 °F 49% 29.95 in 10.0 mi SSE 21.9 mph - N/A   Scattered Clouds
11:35 AM 71.6 °F - 50.0 °F 46% 29.94 in 10.0 mi South 19.6 mph 28.8 mph N/A   Clear
11:55 AM 73.4 °F - 50.0 °F 44% 29.93 in 10.0 mi South 18.4 mph - N/A   Scattered Clouds
12:15 PM 71.6 °F - 50.0 °F 46% 29.91 in 10.0 mi South 23.0 mph 28.8 mph N/A   Scattered Clouds
12:35 PM 73.4 °F - 50.0 °F 44% 29.90 in 10.0 mi South 19.6 mph 28.8 mph N/A   Mostly Cloudy
12:55 PM 73.4 °F - 50.0 °F 44% 29.89 in 10.0 mi South 24.2 mph 32.2 mph N/A   Overcast
1:15 PM 73.4 °F - 50.0 °F 44% 29.88 in 10.0 mi South 25.3 mph 34.5 mph N/A   Mostly Cloudy
1:35 PM 73.4 °F - 50.0 °F 44% 29.87 in 10.0 mi South 24.2 mph 34.5 mph N/A   Mostly Cloudy
1:55 PM 75.2 °F - 51.8 °F 44% 29.86 in 10.0 mi South 24.2 mph 28.8 mph N/A   Mostly Cloudy
2:15 PM 73.4 °F - 51.8 °F 47% 29.85 in 10.0 mi South 21.9 mph 31.1 mph N/A   Overcast
2:35 PM 77.0 °F - 50.0 °F 39% 29.85 in 10.0 mi South 25.3 mph 35.7 mph N/A   Mostly Cloudy
2:55 PM 75.2 °F - 51.8 °F 44% 29.84 in 10.0 mi South 23.0 mph 31.1 mph N/A   Mostly Cloudy
3:15 PM 77.0 °F - 51.8 °F 41% 29.83 in 10.0 mi South 26.5 mph - N/A   Mostly Cloudy
3:35 PM 77.0 °F - 50.0 °F 39% 29.82 in 10.0 mi South 21.9 mph 35.7 mph N/A   Mostly Cloudy
3:55 PM 77.0 °F - 46.4 °F 34% 29.82 in 10.0 mi SSW 27.6 mph 34.5 mph N/A   Scattered Clouds
4:15 PM 75.2 °F - 46.4 °F 36% 29.81 in 10.0 mi SSW 28.8 mph 36.8 mph N/A   Scattered Clouds
4:35 PM 73.4 °F - 46.4 °F 38% 29.81 in 10.0 mi South 27.6 mph 33.4 mph N/A   Scattered Clouds
4:55 PM 73.4 °F - 50.0 °F 44% 29.80 in 10.0 mi South 19.6 mph 32.2 mph N/A   Mostly Cloudy
5:15 PM 75.2 °F - 50.0 °F 41% 29.80 in 10.0 mi South 20.7 mph 31.1 mph N/A   Mostly Cloudy
5:35 PM 73.4 °F - 50.0 °F 44% 29.79 in 10.0 mi South 24.2 mph 32.2 mph N/A   Mostly Cloudy
5:55 PM 73.4 °F - 50.0 °F 44% 29.78 in 10.0 mi South 26.5 mph 35.7 mph N/A   Scattered Clouds
6:15 PM 73.4 °F - 50.0 °F 44% 29.76 in 10.0 mi South 24.2 mph 31.1 mph N/A   Clear
6:35 PM 71.6 °F - 50.0 °F 46% 29.76 in 10.0 mi South 20.7 mph 29.9 mph N/A   Clear
6:55 PM 71.6 °F - 50.0 °F 46% 29.77 in 10.0 mi SSW 23.0 mph 28.8 mph N/A   Clear
7:15 PM 69.8 °F - 50.0 °F 49% 29.77 in 10.0 mi South 19.6 mph 26.5 mph N/A   Clear
7:35 PM 69.8 °F - 50.0 °F 49% 29.78 in 10.0 mi South 16.1 mph 24.2 mph N/A   Clear
7:55 PM 68.0 °F - 50.0 °F 52% 29.79 in 10.0 mi SSW 17.3 mph 21.9 mph N/A   Clear
8:15 PM 68.0 °F - 50.0 °F 52% 29.79 in 10.0 mi SSW 11.5 mph - N/A   Clear
8:35 PM 66.2 °F - 50.0 °F 56% 29.80 in 10.0 mi South 8.1 mph - N/A   Clear
8:55 PM 64.4 °F - 51.8 °F 64% 29.80 in 10.0 mi South 8.1 mph - N/A   Clear
9:15 PM 64.4 °F - 51.8 °F 64% 29.80 in 10.0 mi South 5.8 mph - N/A   Clear
9:35 PM 62.6 °F - 51.8 °F 68% 29.80 in 10.0 mi SSW 8.1 mph - N/A   Clear
9:55 PM 62.6 °F - 51.8 °F 68% 29.79 in 10.0 mi South 8.1 mph - N/A   Clear
10:15 PM 62.6 °F - 51.8 °F 68% 29.78 in 10.0 mi South 6.9 mph - N/A   Clear
10:35 PM 62.6 °F - 51.8 °F 68% 29.76 in 10.0 mi South 11.5 mph - N/A   Clear
10:55 PM 64.4 °F - 51.8 °F 64% 29.75 in 10.0 mi South 9.2 mph - N/A   Clear
11:15 PM 64.4 °F - 51.8 °F 64% 29.75 in 10.0 mi South 11.5 mph - N/A   Clear
11:55 PM 62.6 °F - 51.8 °F 68% 29.75 in 10.0 mi South 10.4 mph - N/A   Clear